Bellingham, WA
on Friday, January 4, 2013

Friday
Previous Day Next Day
Daily Summary
 ActualAverageRecord
Temperature
Mean Temperature °F 38°F  
Max Temperature 43°F 44°F 60°F (2012)
Min Temperature 33°F 32°F 5°F (1950)
Degree Days
Heating Degree Days 27 27  
Month to date heating degree days 108  
Cooling Degree Days 0 0  
Month to date cooling degree days 0  
Year to date cooling degree days 0  
Moisture
Dew Point 36°F   
Average Humidity 95    
Maximum Humidity 100    
Minimum Humidity 87    
Precipitation
Precipitation 0.04 in 0.14 in 1.04 in (1984)
Month to date precipitation 0.56  
Year to date precipitation 0.56  
Wind
Wind Speed 6 mph   
Max Wind Speed 14 mph   
Max Gust Speed 23 mph   
Visibility 7 miles   
Events Rain   

Key: T is trace of precipitation, MM is missing value
Source: NWS Daily Summary
Time(PST)TemperatureDew PointHumidity Pressure Visibility Wind DirectionWind SpeedGust SpeedPrecipitationEvents Conditions
12:06 AM 33.8°F 30.2°F 87% 30.13 in 10.0 miles North 6.9 mph - 0.00 in Rain Light Rain
12:53 AM 34.0°F 32.0°F 92% 30.17 in 10.0 miles North 4.6 mph - 0.00 in Rain Light Rain
1:53 AM 35.1°F 33.1°F 92% 30.19 in 10.0 miles North 3.5 mph - 0.00 in   Overcast
2:29 AM 35.6°F 33.8°F 93% 30.18 in 10.0 miles Calm Calm - N/A   Overcast
2:53 AM 35.1°F 33.1°F 92% 30.22 in 10.0 miles Calm Calm - 0.00 in   Overcast
3:53 AM 43.0°F 39.9°F 89% 30.22 in 10.0 miles SSE 13.8 mph 23.0 mph 0.00 in   Overcast
4:53 AM 42.8°F 39.2°F 87% 30.21 in 10.0 miles SSE 10.4 mph - N/A   Overcast
5:53 AM 35.1°F 34.0°F 96% 30.26 in 5.0 miles North 6.9 mph - N/A   Overcast
6:53 AM 35.1°F 34.0°F 96% 30.27 in 8.0 miles North 4.6 mph - N/A   Overcast
7:53 AM 35.1°F 34.0°F 96% 30.29 in 4.0 miles Calm Calm - 0.01 in Rain Light Rain
8:42 AM 35.6°F 35.6°F 100% 30.28 in 2.0 miles North 3.5 mph - 0.02 in Rain Light Rain
8:53 AM 36.0°F 35.1°F 97% 30.31 in 1.5 miles North 5.8 mph - 0.02 in Rain Light Rain
9:13 AM 35.6°F 35.6°F 100% 30.29 in 1.8 miles NNE 5.8 mph - 0.00 in Rain Light Rain
9:53 AM 36.0°F 35.1°F 97% 30.33 in 1.5 miles North 5.8 mph - 0.01 in Rain Light Rain
10:20 AM 35.6°F 35.6°F 100% 30.31 in 1.5 miles North 5.8 mph - 0.00 in   Overcast
10:53 AM 37.0°F 36.0°F 96% 30.33 in 1.5 miles North 5.8 mph - 0.00 in Rain Light Rain
11:53 AM 37.9°F 37.0°F 97% 30.33 in 1.5 miles North 6.9 mph - 0.00 in Rain Light Rain
12:00 PM 37.4°F 37.4°F 100% 30.30 in 3.0 miles North 5.8 mph - 0.00 in Rain Light Rain
12:53 PM 37.9°F 37.0°F 97% 30.32 in 4.0 miles North 8.1 mph - 0.00 in   Overcast
1:53 PM 37.9°F 37.0°F 97% 30.31 in 4.0 miles North 5.8 mph - N/A   Overcast
2:53 PM 37.9°F 37.0°F 97% 30.31 in 5.0 miles North 6.9 mph - N/A   Overcast
3:33 PM 39.2°F 37.4°F 93% 30.26 in 10.0 miles North 5.8 mph - N/A   Overcast
3:53 PM 37.9°F 37.0°F 97% 30.30 in 10.0 miles North 5.8 mph - N/A   Overcast
4:00 PM 37.4°F 37.4°F 100% 30.27 in 10.0 miles North 4.6 mph - N/A   Overcast
4:53 PM 37.4°F 37.4°F 100% 30.27 in 10.0 miles North 5.8 mph - N/A   Overcast
5:53 PM 37.0°F 36.0°F 96% 30.27 in 10.0 miles NNE 6.9 mph - N/A   Mostly Cloudy
6:25 PM 37.4°F 35.6°F 93% 30.23 in 10.0 miles NNE 8.1 mph - N/A   Scattered Clouds
6:53 PM 37.0°F 36.0°F 96% 30.26 in 10.0 miles North 6.9 mph - N/A   Partly Cloudy
7:53 PM 37.0°F 35.1°F 93% 30.25 in 10.0 miles North 6.9 mph - N/A   Clear
8:53 PM 37.0°F 36.0°F 96% 30.23 in 10.0 miles NNE 8.1 mph - N/A   Clear
9:53 PM 37.9°F 36.0°F 93% 30.22 in 10.0 miles North 6.9 mph - N/A   Clear
10:53 PM 37.0°F 35.1°F 93% 30.21 in 10.0 miles NE 4.6 mph - N/A   Partly Cloudy
11:53 PM 37.0°F 35.1°F 93% 30.22 in 10.0 miles NNE 5.8 mph - N/A   Overcast
Moon Phase
Jan. 04 Jan. 04 Jan. 11 Jan. 18 Jan. 26
Sunrise:08:02 AM (PST) Moon Rise:No Moon Rise/
Sunset:04:27 PM (PST) Moon Set:11:08 AM (PST)1/4

Copyright © 2014 The Weather Underground, Inc.